This is the latest recevied weather packets stored in our database for station/object K7CTM. If no packets are shown the sender has not sent any weather packets the latest 1 day(s).
| Time | Temp. | Humidity | Pressure | Rain* | Wind** | Luminosity | Snow |
|---|---|---|---|---|---|---|---|
| 1778012716 | 7.22° C | 41% | 1026.1 hPa | 0 mm | 0.89 m/s, 283° | 217 W/m² | - |
| 1778012412 | 6.11° C | 57% | 1026.4 hPa | 0 mm | 0.45 m/s, 250° | 251 W/m² | - |
| 1778012109 | 6.11° C | 58% | 1026.5 hPa | 0 mm | 1.79 m/s, 237° | 270 W/m² | - |
| 1778011806 | 6.11° C | 58% | 1026.6 hPa | 0 mm | 2.68 m/s, 282° | 335 W/m² | - |
| 1778011504 | 6.67° C | 55% | 1026.6 hPa | 0 mm | 2.68 m/s, 264° | 214 W/m² | - |
| 1778011200 | 7.22° C | 38% | 1026.6 hPa | 0 mm | 5.81 m/s, 302° | 178 W/m² | - |
| 1778010897 | 7.22° C | 38% | 1026.3 hPa | 0 mm | 2.24 m/s, 271° | 147 W/m² | - |
| 1778010595 | 7.78° C | 37% | 1026.4 hPa | 0 mm | 1.79 m/s, 28° | 163 W/m² | - |
| 1778010292 | 7.78° C | 36% | 1026.4 hPa | 0 mm | 3.58 m/s, 7° | 181 W/m² | - |
| 1778010001 | 7.78° C | 37% | 1026.3 hPa | 0 mm | 2.24 m/s, 323° | 215 W/m² | - |
| 1778009690 | 7.78° C | 39% | 1026.4 hPa | 0 mm | 1.79 m/s, 291° | 205 W/m² | - |
| 1778009387 | 8.33° C | 39% | 1026.3 hPa | 0 mm | 2.68 m/s, 347° | 262 W/m² | - |
| 1778009086 | 7.78° C | 39% | 1026.3 hPa | 0 mm | 1.79 m/s, 299° | 297 W/m² | - |
| 1778008782 | 8.33° C | 38% | 1026.2 hPa | 0 mm | 2.68 m/s, 358° | 242 W/m² | - |
| 1778008481 | 8.33° C | 37% | 1026.1 hPa | 0 mm | 1.79 m/s, 290° | 217 W/m² | - |
| 1778008177 | 8.89° C | 38% | 1026.1 hPa | 0 mm | 0.89 m/s, 286° | 351 W/m² | - |
| 1778007873 | 9.44° C | 36% | 1026.3 hPa | 0 mm | 2.68 m/s, 33° | 330 W/m² | - |
| 1778007568 | 8.33° C | 39% | 1026.1 hPa | 0 mm | 1.34 m/s, 293° | 675 W/m² | - |
| 1778007266 | 8.33° C | 40% | 1026.2 hPa | 0 mm | 1.79 m/s, 344° | 244 W/m² | - |
| 1778006962 | 8.33° C | 40% | 1026.3 hPa | 0 mm | 0.89 m/s, 241° | 262 W/m² | - |
| 1778006659 | 8.89° C | 38% | 1026.3 hPa | 0 mm | 1.79 m/s, 335° | 211 W/m² | - |
| 1778006356 | 10° C | 37% | 1026.3 hPa | 0 mm | 0.89 m/s, 286° | 308 W/m² | - |
| 1778006053 | 8.89° C | 38% | 1026.3 hPa | 0 mm | 0.89 m/s, 253° | 990 W/m² | - |
| 1778005749 | 8.89° C | 36% | 1026.5 hPa | 0 mm | 3.13 m/s, 312° | 780 W/m² | - |
| 1778005446 | 8.33° C | 41% | 1026.4 hPa | 0 mm | 1.79 m/s, 345° | 715 W/m² | - |
* Rain latest hour (hover to see other rain measurements)
** Current wind speed in m/s (hover to see current wind gust speed)